Regional Weather Roundup
Issued by NWS Cleveland, OH

Home | Current Version | Previous Version | Text Only | Print | Product List | Glossary Off
Versions: 1 2 3 4 5 6 7 8 9 10 11 12 13 14 15 16 17 18 19 20 21 22 23 24 25 26 27 28 29 30 31 32 33 34 35 36 37 38 39 40 41 42 43 44 45 46 47 48 49 50

000
ASUS41 KCLE 180610
RWRCLE
OHIO REGIONAL WEATHER ROUNDUP
NATIONAL WEATHER SERVICE WILMINGTON, OH
100 AM EST THU DEC 18 2014

NOTE: "FAIR" INDICATES FEW OR NO CLOUDS BELOW 12,000 FEET WITH NO
SIGNIFICANT WEATHER AND/OR OBSTRUCTIONS TO VISIBILITY.

OHZ001>008-015>018-024>027-034-035-043-044-180700-
   NORTHWEST OHIO

CITY           SKY/WX    TMP DP  RH WIND       PRES   REMARKS
DEFIANCE       NOT AVBL
FINDLAY        CLOUDY    28  22  78 W10       30.22R WCI  19
TOLEDO EXPRESS CLOUDY    29  20  69 W12       30.21S WCI  19
TOLEDO METCALF CLOUDY    30  20  66 W13       30.22S WCI  20
LIMA           CLOUDY    30  20  66 W12       30.22S WCI  20
$$

OHZ009>014-019>023-028>033-038-089-180700-
   NORTHEAST OHIO

CITY           SKY/WX    TMP DP  RH WIND       PRES   REMARKS
CLE-HOPKINS    FLURRIES  29  20  69 W22G29    30.19R WCI  15
CLE-LAKEFRONT  CLOUDY    31  22  69 W25       30.16R WCI  17
CUY CO. ARPT   NOT AVBL
LORAIN-ELYRIA  CLOUDY    29  21  72 W12       30.19R WCI  19
ASHTABULA      FLURRIES  29  23  78 W10       30.12R WCI  20
AKRON-CANTON   CLOUDY    28  18  66 W17G24    30.15R WCI  16
WOOSTER        CLOUDY    27  21  78 W13       30.18R WCI  16
MANSFIELD      CLOUDY    26  21  81 W7G18     30.17S WCI  18
YOUNGSTOWN     FLURRIES  28  21  75 W12       30.12R WCI  18
$$

OHZ042-051>053-060>062-070>072-077>081-180700-
  SOUTHWEST OHIO

CITY           SKY/WX    TMP DP  RH WIND       PRES   REMARKS
CINC-COVINGTON CLOUDY    27  19  72 N12       30.26F WCI  17
CINC-LUNKEN    CLOUDY    27  20  75 N8        30.31S WCI  19
HAMILTON       CLOUDY    26  20  77 NW7       30.30S WCI  18
DAYTON         CLOUDY    27  19  72 W9        30.25S WCI  18
WRIGHT-PAT AFB CLOUDY    26  19  72 W6        30.25S WCI  20
DAYTON GENERAL CLOUDY    26  20  77 NW6       30.25S WCI  19
WILMINGTON     CLOUDY    25  18  74 N12       30.25S WCI  14
$$

OHZ036-037-039>041-045>050-054>059-063>069-073>076-082>088-180700-
  CENTRAL AND SOUTHEAST OHIO

CITY           SKY/WX    TMP DP  RH WIND       PRES   REMARKS
COLUMBUS       CLOUDY    27  18  69 W8        30.23S WCI  19
OSU AIRPORT    CLOUDY    27  19  72 NW6       30.23S WCI  20
BOLTON FIELD   CLOUDY    27  19  73 W5        30.24S WCI  21
RICKENBACK AFB CLOUDY    27  18  69 W6        30.24S WCI  21
NEWARK         CLOUDY    28  19  69 W6        30.21F WCI  22
MARION         CLOUDY    27  20  75 W10       30.21F WCI  17
LANCASTER      CLOUDY    27  21  78 NW5       30.24S WCI  22
ZANESVILLE     CLOUDY    26  18  71 W6        30.22R WCI  19
NEW PHILLY     CLOUDY    29  20  69 W10       30.19F WCI  20
$$



USA.gov is the U.S. government's official web portal to all federal, state and local government web resources and services.